Change the Weather History Date:

Monday, April 15, 2013

  Actual Average (KBKW) Record (KBKW)
Temperature  
Mean Temperature 60 °F 52 °F  
Max Temperature 68 °F 63 °F 82 °F (2012)
Min Temperature 52 °F 41 °F 17 °F (1957)
Degree Days  
Heating Degree Days 5 13  
Month to date heating degree days 230  
Since 1 July heating degree days 4943  
Cooling Degree Days 0 0  
Month to date cooling degree days 0  
Year to date cooling degree days 1  
Growing Degree Days 10 (Base 50)    
Moisture  
Dew Point 53 °F    
Average Humidity 84    
Maximum Humidity 100    
Minimum Humidity 61    
Precipitation  
Precipitation 0.00 in 0.11 in 1.33 in (1956)
Month to date precipitation 1.62  
Year to date precipitation 10.76  
Snow  
Snow 0.00 in - - ()
Month to date snowfall  
Since 1 September snowfall  
Snow Depth -    
Sea Level Pressure  
Sea Level Pressure 30.13 in    
Wind  
Wind Speed - (North)    
Max Wind Speed -    
Max Gust Speed -    
Visibility 10 miles    
Events Rain    
T = Trace of Precipitation, MM = Missing Value Source: NWS Daily Summary

Daily Weather History Graph

Daily Weather History Graph

Search for Another Location

Airport or City:

Trip Planner

Search our weather history database for the weather conditions in past years. The results will help you decide how hot, cold, wet, or windy it might be!

Date:

Astronomy

Apr. 15, 2013 Rise Set
Actual Time 6:50 AM EDT 8:01 PM EDT
Civil Twilight 6:23 AM EDT 8:29 PM EDT
Nautical Twilight 5:51 AM EDT 9:01 PM EDT
Astronomical Twilight 5:18 AM EDT 9:35 PM EDT
Moon 10:19 AM EDT (4/15) 12:09 AM EDT (4/15)
Length of Visible Light 14h 05m
Length of Day
13h 10m
Waxing Crescent, 24% of the Moon is Illuminated
Apr 15
Waxing Crescent
Apr 18
First Quarter
Apr 25
Full
May 2
Last Quarter
May 9
New

Hourly Weather History & Observations

Time (EDT) Temp. Dew Point Humidity Pressure Visibility Wind Dir Wind Speed Gust Speed Precip Events Conditions
12:15 AM 59.4 °F 54.0 °F 82% 30.11 in 10.0 mi North - - N/A Rain Light Rain
12:35 AM 57.6 °F 54.0 °F 88% 30.12 in 7.0 mi North - - N/A Rain Rain
12:55 AM 56.3 °F 54.5 °F 94% 30.11 in 7.0 mi North - - N/A Rain Rain
1:15 AM 55.4 °F 54.5 °F 97% 30.08 in 10.0 mi North - - N/A Rain Light Rain
1:35 AM 54.5 °F 54.1 °F 99% 30.08 in 10.0 mi North - - N/A Rain Light Rain
1:55 AM 54.5 °F 54.1 °F 99% 30.08 in 10.0 mi North - - N/A Rain Light Rain
2:15 AM 54.0 °F 54.0 °F 100% 30.08 in 10.0 mi North - - N/A Rain Light Rain
2:35 AM 54.1 °F 53.8 °F 99% 30.08 in 10.0 mi North - - N/A Rain Light Rain
2:55 AM 54.0 °F 54.0 °F 100% 30.08 in 7.0 mi North - - N/A Rain Rain
3:15 AM 54.7 °F 53.2 °F 95% 30.07 in 7.0 mi North - - N/A Rain Rain
3:35 AM 54.5 °F 53.1 °F 95% 30.08 in 10.0 mi North - - N/A Rain Light Rain
3:55 AM 54.0 °F 53.1 °F 97% 30.06 in 7.0 mi North - - N/A Rain Light Rain
4:15 AM 54.0 °F 53.4 °F 98% 30.07 in 10.0 mi North - - N/A Rain Light Rain
4:35 AM 54.0 °F 53.4 °F 98% 30.07 in 10.0 mi North - - N/A   Drizzle
4:55 AM 53.8 °F 53.6 °F 99% 30.08 in 5.0 mi North - - N/A Rain Rain
5:15 AM 53.8 °F 53.6 °F 99% 30.08 in 5.0 mi North - - N/A Rain Light Rain
5:35 AM 54.0 °F 53.6 °F 99% 30.06 in 7.0 mi North - - N/A Rain Rain
5:55 AM 54.5 °F 53.4 °F 96% 30.06 in 10.0 mi North - - N/A   Light Drizzle
6:15 AM 54.7 °F 53.2 °F 95% 30.06 in 10.0 mi North - - N/A   Overcast
6:35 AM 54.7 °F 53.1 °F 94% 30.06 in 10.0 mi North - - N/A   Overcast
6:55 AM 55.0 °F 53.2 °F 94% 30.08 in 10.0 mi North - - N/A   Drizzle
7:15 AM 55.0 °F 53.2 °F 94% 30.08 in 7.0 mi North - - N/A   Light Drizzle
7:35 AM 55.2 °F 53.1 °F 92% 30.09 in 10.0 mi North - - N/A   Light Drizzle
7:55 AM 55.4 °F 53.1 °F 92% 30.10 in 10.0 mi North - - N/A   Overcast
8:15 AM 55.8 °F 52.9 °F 90% 30.11 in 10.0 mi North - - N/A   Overcast
8:35 AM 56.3 °F 52.7 °F 88% 30.11 in 10.0 mi North - - N/A   Overcast
8:55 AM 56.3 °F 53.1 °F 89% 30.12 in 10.0 mi North - - N/A   Overcast
9:15 AM 56.5 °F 52.7 °F 87% 30.13 in 10.0 mi North - - N/A   Overcast
9:35 AM 56.7 °F 52.9 °F 87% 30.13 in 10.0 mi North - - N/A   Overcast
9:55 AM 57.0 °F 52.7 °F 85% 30.13 in 10.0 mi North - - N/A   Overcast
10:15 AM 57.2 °F 52.7 °F 85% 30.13 in 10.0 mi North - - N/A   Overcast
10:35 AM 57.6 °F 52.7 °F 84% 30.14 in 10.0 mi North - - N/A   Overcast
10:55 AM 57.6 °F 52.5 °F 83% 30.15 in 10.0 mi North - - N/A   Overcast
11:15 AM 57.6 °F 52.2 °F 82% 30.16 in 10.0 mi North - - N/A   Overcast
11:35 AM 57.7 °F 52.2 °F 82% 30.16 in 10.0 mi North - - N/A   Overcast
11:55 AM 58.3 °F 52.3 °F 81% 30.16 in 10.0 mi North - - N/A   Overcast
12:15 PM 59.2 °F 52.7 °F 79% 30.16 in 10.0 mi North - - N/A   Overcast
12:35 PM 59.9 °F 53.2 °F 79% 30.16 in 10.0 mi North - - N/A   Overcast
12:55 PM 60.8 °F 53.4 °F 77% 30.16 in 10.0 mi North - - N/A   Overcast
1:15 PM 62.2 °F 54.0 °F 74% 30.16 in 10.0 mi North - - N/A   Overcast
1:35 PM 63.0 °F 53.8 °F 72% 30.15 in 10.0 mi North - - N/A   Overcast
1:55 PM 62.2 °F 53.1 °F 72% 30.15 in 10.0 mi North - - N/A   Overcast
2:15 PM 62.6 °F 53.6 °F 72% 30.15 in 10.0 mi North - - N/A   Overcast
2:35 PM 62.8 °F 53.6 °F 72% 30.15 in 10.0 mi North - - N/A   Overcast
2:55 PM 63.9 °F 54.0 °F 70% 30.15 in 10.0 mi North - - N/A   Overcast
3:15 PM 63.5 °F 53.6 °F 70% 30.15 in 10.0 mi North - - N/A   Overcast
3:35 PM 65.1 °F 54.0 °F 67% 30.14 in 10.0 mi North - - N/A   Overcast
3:55 PM 68.2 °F 54.5 °F 62% 30.13 in 10.0 mi North - - N/A   Scattered Clouds
4:15 PM 67.1 °F 54.1 °F 63% 30.13 in 10.0 mi North - - N/A   Mostly Cloudy
4:35 PM 65.8 °F 53.8 °F 65% 30.13 in 10.0 mi North - - N/A   Overcast
4:55 PM 66.7 °F 54.0 °F 63% 30.13 in 10.0 mi North - - N/A   Mostly Cloudy
5:15 PM 67.6 °F 54.0 °F 61% 30.14 in 10.0 mi North - - N/A   Mostly Cloudy
5:35 PM 65.5 °F 53.8 °F 66% 30.14 in 10.0 mi North - - N/A   Mostly Cloudy
5:55 PM 66.4 °F 53.8 °F 64% 30.14 in 10.0 mi North - - N/A   Scattered Clouds
6:15 PM 66.7 °F 54.7 °F 65% 30.15 in 10.0 mi North - - N/A   Mostly Cloudy
6:35 PM 65.8 °F 54.1 °F 66% 30.15 in 10.0 mi North - - N/A   Overcast
6:55 PM 63.9 °F 53.8 °F 70% 30.15 in 10.0 mi North - - N/A   Mostly Cloudy
7:15 PM 63.1 °F 53.8 °F 71% 30.15 in 10.0 mi North - - N/A   Mostly Cloudy
7:35 PM 61.9 °F 53.8 °F 75% 30.15 in 10.0 mi North - - N/A   Scattered Clouds
7:55 PM 61.3 °F 53.8 °F 76% 30.16 in 10.0 mi North - - N/A   Scattered Clouds
8:15 PM 60.8 °F 53.8 °F 78% 30.15 in 10.0 mi North - - N/A   Scattered Clouds
8:35 PM 60.3 °F 53.8 °F 79% 30.16 in 10.0 mi North - - N/A   Clear
8:55 PM 60.1 °F 54.0 °F 80% 30.17 in 10.0 mi North - - N/A   Clear
9:15 PM 59.4 °F 54.0 °F 82% 30.18 in 10.0 mi North - - N/A   Clear
9:35 PM 58.3 °F 53.8 °F 85% 30.18 in 10.0 mi North - - N/A   Clear
9:55 PM 57.2 °F 53.4 °F 87% 30.19 in 10.0 mi North - - N/A   Clear
10:15 PM 54.5 °F 52.5 °F 93% 30.19 in 10.0 mi North - - N/A   Clear
10:35 PM 53.4 °F 52.3 °F 96% 30.20 in 10.0 mi North - - N/A   Clear
10:55 PM 53.1 °F 52.5 °F 98% 30.20 in 10.0 mi North - - N/A   Clear
11:15 PM 52.7 °F 52.2 °F 98% 30.20 in 10.0 mi North - - N/A   Clear
11:35 PM 52.3 °F 52.2 °F 99% 30.20 in 10.0 mi North - - N/A   Clear
11:55 PM 52.2 °F 52.0 °F 99% 30.20 in 10.0 mi North - - N/A   Clear